Location: Borotín
(49.5055°N, 14.6142°E)
Time: 05:56:29
(UTC+00:00)

Helios 1A - Pass Details

Date: 27 May 2022
Orbit: 581 x 600 km, 98.2° (Epoch: 28 June)

Event Time Altitude Azimuth Distance (km) Brightness Sun altitude
Exits shadow 01:24:34 - 170° (S) 2,033 5.3 -12.2°
Reaches altitude 10° 01:24:49 10° 170° (S) 1,930 5.2 -12.1°
Maximum altitude 01:29:01 76° 256° (WSW) 623 2.9 -11.8°
Drops below altitude 10° 01:33:16 10° 343° (NNW) 1,954 6.1 -11.3°
Sets 01:35:27 0° 345° (NNW) 2,863 7.1 -11.1°
